• In Hungary
  • List of Countries
  • For 7 days
  • Water Temperature
  • Satellite Maps
  • Weather Map
  • News
  • Weather Widgets
  • user-avatar
    Login

    Hourly Weather Mosty

    Today, 21 April, Saturday

    Time Temperature Precipitation Wind Pressure Humidity
    00:00 +8°C° 0 mm 3 mps 739 mmHg 86%
    01:00 +8°C° 0 mm 3 mps 738 mmHg 88%
    02:00 +8°C° 0 mm 3 mps 737 mmHg 91%
    03:00 +8°C° 0.2 mm 3 mps 736 mmHg 92%
    04:00 +9°C° 0.2 mm 3 mps 735 mmHg 94%
    05:00 +9°C° 0.2 mm 3 mps 734 mmHg 95%
    06:00 +8°C° 0.1 mm 4 mps 733 mmHg 92%
    07:00 +10°C° 0.1 mm 4 mps 732 mmHg 89%
    08:00 +10°C° 0 mm 5 mps 730 mmHg 86%
    09:00 +12°C° 0.3 mm 5 mps 729 mmHg 82%
    10:00 +13°C° 0.3 mm 5 mps 728 mmHg 78%
    11:00 +14°C° 0.3 mm 6 mps 727 mmHg 75%
    12:00 +13°C° 0.6 mm 6 mps 726 mmHg 75%
    13:00 +11°C° 0.6 mm 6 mps 726 mmHg 76%
    14:00 +11°C° 0.6 mm 6 mps 725 mmHg 77%
    15:00 +10°C° 0.3 mm 6 mps 725 mmHg 77%
    16:00 +9°C° 0.3 mm 7 mps 725 mmHg 77%
    17:00 +6°C° 0.3 mm 7 mps 726 mmHg 77%
    18:00 +5°C° 0.5 mm 7 mps 726 mmHg 79%
    19:00 +4°C° 0.5 mm 7 mps 727 mmHg 80%
    20:00 +2°C° 0.5 mm 8 mps 728 mmHg 82%
    21:00 +2°C° 0.3 mm 7 mps 728 mmHg 82%
    22:00 +2°C° 0.3 mm 7 mps 729 mmHg 82%
    23:00 +1°C° 0.3 mm 6 mps 730 mmHg 82%

    Tomorrow, 22 April, Sunday

    Time Temperature Precipitation Wind Pressure Humidity
    00:00 +1°C° 0.1 mm 6 mps 731 mmHg 82%
    01:00 +1°C° 0.1 mm 5 mps 732 mmHg 82%
    02:00 0°C° 0.1 mm 5 mps 733 mmHg 82%
    03:00 0°C° 0 mm 5 mps 734 mmHg 83%
    04:00 0°C° 0 mm 4 mps 734 mmHg 83%
    05:00 -1°C° 0 mm 4 mps 735 mmHg 83%
    06:00 -1°C° 0 mm 4 mps 735 mmHg 80%
    07:00 0°C° 0 mm 4 mps 736 mmHg 77%
    08:00 0°C° 0 mm 4 mps 736 mmHg 74%
    09:00 0°C° 0.1 mm 4 mps 737 mmHg 71%
    10:00 +1°C° 0.1 mm 4 mps 737 mmHg 69%
    11:00 +1°C° 0.1 mm 4 mps 737 mmHg 66%
    12:00 +1°C° 0.1 mm 4 mps 738 mmHg 65%
    13:00 +1°C° 0.1 mm 4 mps 739 mmHg 64%
    14:00 +1°C° 0.1 mm 4 mps 739 mmHg 63%
    15:00 +1°C° 0 mm 4 mps 740 mmHg 62%
    16:00 0°C° 0 mm 4 mps 740 mmHg 62%
    17:00 0°C° 0 mm 4 mps 741 mmHg 62%
    18:00 +1°C° 0 mm 3 mps 741 mmHg 65%
    19:00 0°C° 0 mm 3 mps 742 mmHg 68%
    20:00 -1°C° 0 mm 2 mps 742 mmHg 71%
    21:00 -1°C° 0 mm 2 mps 743 mmHg 74%
    22:00 -2°C° 0 mm 2 mps 743 mmHg 77%
    23:00 -2°C° 0 mm 2 mps 743 mmHg 80%

    Day after tomorrow, 23 April, Monday

    Time Temperature Precipitation Wind Pressure Humidity
    00:00 -3°C° 0 mm 2 mps 744 mmHg 82%
    01:00 -3°C° 0 mm 2 mps 744 mmHg 85%
    02:00 -4°C° 0 mm 2 mps 745 mmHg 87%
    03:00 -4°C° 0 mm 2 mps 745 mmHg 86%
    04:00 -4°C° 0 mm 2 mps 745 mmHg 85%
    05:00 -4°C° 0 mm 2 mps 746 mmHg 83%
    06:00 -2°C° 0 mm 3 mps 746 mmHg 73%
    07:00 -1°C° 0 mm 3 mps 746 mmHg 63%
    08:00 +1°C° 0 mm 3 mps 746 mmHg 52%
    09:00 +2°C° 0 mm 3 mps 746 mmHg 49%
    10:00 +3°C° 0 mm 3 mps 746 mmHg 47%
    11:00 +4°C° 0 mm 3 mps 746 mmHg 44%
    12:00 +4°C° 0 mm 3 mps 746 mmHg 43%
    13:00 +5°C° 0 mm 3 mps 746 mmHg 42%
    14:00 +5°C° 0 mm 3 mps 746 mmHg 41%
    15:00 +5°C° 0 mm 3 mps 746 mmHg 43%
    16:00 +5°C° 0 mm 3 mps 746 mmHg 45%
    17:00 +6°C° 0 mm 2 mps 746 mmHg 47%
    18:00 +4°C° 0 mm 2 mps 746 mmHg 54%
    19:00 +3°C° 0 mm 1 mps 746 mmHg 62%
    20:00 +1°C° 0 mm 1 mps 746 mmHg 69%
    21:00 +1°C° 0 mm 1 mps 746 mmHg 71%
    22:00 -1°C° 0 mm 0 mps 746 mmHg 73%
    23:00 -1°C° 0 mm 0 mps 746 mmHg 74%

    24 April, Tuesday

    Time Temperature Precipitation Wind Pressure Humidity
    00:00 -2°C° 0 mm 0 mps 746 mmHg 75%
    01:00 -1°C° 0 mm 1 mps 746 mmHg 75%
    02:00 -1°C° 0 mm 1 mps 746 mmHg 76%
    03:00 -1°C° 0 mm 1 mps 746 mmHg 75%
    04:00 -1°C° 0 mm 1 mps 746 mmHg 74%
    05:00 0°C° 0 mm 1 mps 746 mmHg 73%
    06:00 +2°C° 0 mm 1 mps 746 mmHg 65%
    07:00 +3°C° 0 mm 2 mps 745 mmHg 57%
    08:00 +5°C° 0 mm 2 mps 745 mmHg 50%
    09:00 +6°C° 0 mm 2 mps 745 mmHg 46%
    10:00 +7°C° 0 mm 3 mps 744 mmHg 43%
    11:00 +9°C° 0 mm 3 mps 744 mmHg 39%
    12:00 +9°C° 0 mm 3 mps 743 mmHg 40%
    13:00 +10°C° 0 mm 3 mps 743 mmHg 41%
    14:00 +10°C° 0 mm 3 mps 742 mmHg 41%
    15:00 +9°C° 0 mm 3 mps 742 mmHg 46%
    16:00 +9°C° 0 mm 2 mps 741 mmHg 52%
    17:00 +8°C° 0 mm 2 mps 741 mmHg 57%
    18:00 +8°C° 0.1 mm 2 mps 741 mmHg 62%
    19:00 +7°C° 0.1 mm 2 mps 740 mmHg 66%
    20:00 +6°C° 0.1 mm 2 mps 740 mmHg 71%
    21:00 +5°C° 0.2 mm 3 mps 740 mmHg 76%
    22:00 +5°C° 0.2 mm 3 mps 739 mmHg 81%
    23:00 +4°C° 0.2 mm 3 mps 739 mmHg 86%

    25 April, Wednesday

    Time Temperature Precipitation Wind Pressure Humidity
    00:00 +4°C° 0.1 mm 3 mps 739 mmHg 89%
    01:00 +4°C° 0.1 mm 3 mps 738 mmHg 92%
    02:00 +5°C° 0.1 mm 2 mps 738 mmHg 95%
    03:00 +4°C° 0.2 mm 3 mps 738 mmHg 95%
    04:00 +4°C° 0.2 mm 3 mps 737 mmHg 95%
    05:00 +4°C° 0.2 mm 3 mps 737 mmHg 95%
    06:00 +5°C° 0.1 mm 3 mps 737 mmHg 93%
    07:00 +7°C° 0.1 mm 3 mps 736 mmHg 90%
    08:00 +7°C° 0.1 mm 3 mps 736 mmHg 87%
    09:00 +7°C° 0.8 mm 3 mps 735 mmHg 88%
    10:00 +6°C° 0.8 mm 4 mps 735 mmHg 88%
    11:00 +6°C° 0.8 mm 4 mps 735 mmHg 88%
    12:00 +7°C° 0.5 mm 4 mps 734 mmHg 86%
    13:00 +8°C° 0.5 mm 3 mps 734 mmHg 85%
    14:00 +8°C° 0.5 mm 3 mps 734 mmHg 83%
    15:00 +9°C° 0.2 mm 3 mps 734 mmHg 80%
    16:00 +9°C° 0.2 mm 3 mps 734 mmHg 76%
    17:00 +9°C° 0.2 mm 3 mps 734 mmHg 73%
    18:00 +8°C° 0.1 mm 3 mps 734 mmHg 79%
    19:00 +5°C° 0.1 mm 3 mps 735 mmHg 84%
    20:00 +4°C° 0.1 mm 3 mps 735 mmHg 90%
    21:00 +4°C° 0 mm 3 mps 735 mmHg 92%
    22:00 +3°C° 0 mm 3 mps 736 mmHg 93%
    23:00 +3°C° 0 mm 3 mps 736 mmHg 94%

    26 April, Thursday

    Time Temperature Precipitation Wind Pressure Humidity
    00:00 +3°C° 0 mm 3 mps 736 mmHg 95%
    01:00 +3°C° 0 mm 3 mps 736 mmHg 95%
    02:00 +3°C° 0 mm 3 mps 737 mmHg 96%
    03:00 +3°C° 0 mm 3 mps 737 mmHg 95%
    04:00 +4°C° 0 mm 3 mps 737 mmHg 94%
    05:00 +5°C° 0 mm 2 mps 737 mmHg 94%
    06:00 +5°C° 0 mm 3 mps 738 mmHg 91%
    07:00 +5°C° 0 mm 3 mps 738 mmHg 89%
    08:00 +7°C° 0 mm 3 mps 738 mmHg 87%
    09:00 +8°C° 0 mm 3 mps 738 mmHg 83%
    10:00 +8°C° 0 mm 3 mps 738 mmHg 78%
    11:00 +9°C° 0 mm 3 mps 738 mmHg 74%
    12:00 +9°C° 0.1 mm 3 mps 738 mmHg 73%
    13:00 +10°C° 0.1 mm 3 mps 738 mmHg 71%
    14:00 +10°C° 0.1 mm 3 mps 738 mmHg 70%
    15:00 +10°C° 0.1 mm 2 mps 738 mmHg 70%
    16:00 +10°C° 0.1 mm 2 mps 738 mmHg 70%
    17:00 +10°C° 0.1 mm 2 mps 738 mmHg 70%
    18:00 +9°C° 0 mm 2 mps 738 mmHg 75%
    19:00 +8°C° 0 mm 2 mps 738 mmHg 80%
    20:00 +7°C° 0 mm 2 mps 738 mmHg 86%
    21:00 +7°C° 0 mm 1 mps 738 mmHg 87%
    22:00 +7°C° 0 mm 1 mps 738 mmHg 89%
    23:00 +6°C° 0 mm 1 mps 739 mmHg 91%
    Show more